User: anonymous   Login
Location: Unspecified
(0.0000°N, 0.0000°E)
Time: 23:57:58
(UTC+02:00)
Language:

AO-40 - Orbit

View from above orbital plane
View from above orbital plane
View from above satellite
View from above satellite

Ground track
Ground track

The orbit data is extracted from the following two-line orbital elements,

1 26609U 00072B   15214.94408336 -.00000090  00000-0  00000+0 0  9991
2 26609 009.3791 343.1831 7951275 252.3258 015.4297 01.25585647 67745
Epoch (UTC): 02 August 2015 22:39:28
Eccentricity: 0.7951275
inclination: 9.3791°
perigee height: 1056 km
apogee height: 58764 km
right ascension of ascending node: 343.1831°
argument of perigee: 252.3258°
revolutions per day: 1.25585647
mean anomaly at epoch: 15.4297°
orbit number at epoch: 6774

The dashed part of the orbit path shows where the satellite is in the earth's shadow,  

DLR